Location: Elaine Barite Prospect
(34.1431°N, 106.7922°W)
Time: 06:08:57
(UTC+00:00)

CBERS-1 - Pass Details

Date: 13 December 2025
Orbit: 764 x 773 km, 98.8° (Epoch: 12 January)

Event Time Altitude Azimuth Distance (km) Brightness Sun altitude
Rises 13:30:54 0° 5° (N) 3,241 7.1 -7.1°
Reaches altitude 10° 13:33:17 10° 359° (N) 2,309 6.3 -6.7°
Maximum altitude 13:38:06 45° 288° (WNW) 1,037 4.3 -5.7°
Drops below altitude 10° 13:42:53 10° 217° (SW) 2,293 6.4 -4.8°
Sets 13:45:15 0° 211° (SSW) 3,215 7.2 -4.4°
